START_TIME,STEP,MOV.,M34,t_acc.,L5,t_acc.,L18,t_acc.,L14,t_acc.
1979-07-20 12:00:24.480 ,0,0,0.,12.0,0.,12.0,0.,12.0,0.,12.0
1979-07-20 12:00:36.480 ,0,0,0.,12.0,0.,12.0,0.,12.0,0.,12.0
1979-07-20 12:00:48.480 ,1,1,0.,12.0,0.,12.0,0.,12.0,0.,12.0
1979-07-20 12:01:00.480 ,1,1,0.,12.0,0.,12.0,0.,12.0,0.,12.0
1979-07-20 12:01:12.480 ,1,0,0.,12.0,0.,12.0,0.,12.0,0.,12.0
1979-07-20 12:01:24.480 ,1,0,0.,12.0,0.,12.0,0.,12.0,0.,12.0
1979-07-20 12:01:36.480 ,2,1,0.,12.0,0.,12.0,0.,12.0,0.,12.0
1979-07-20 12:01:48.480 ,2,1,0.,12.0,0.,12.0,0.,12.0,0.,12.0
1979-07-20 12:02:00.480 ,2,0,0.,12.0,0.,12.0,0.,12.0,0.,12.0
1979-07-20 12:02:12.480 ,2,0,0.,12.0,0.,12.0,0.,12.0,0.,12.0
1979-07-20 12:02:24.470 ,3,1,0.,12.0,0.,12.0,0.,12.0,0.,12.0
1979-07-20 12:02:36.480 ,3,1,0.,12.0,0.,12.0,0.,12.0,0.,12.0
1979-07-20 12:02:48.470 ,3,0,0.,12.0,0.,12.0,0.,12.0,0.,12.0
1979-07-20 12:03:00.480 ,3,0,0.,12.0,0.,12.0,0.,12.0,0.,12.0
1979-07-20 12:03:12.470 ,4,1,0.,12.0,0.,12.0,0.,12.0,0.,12.0
1979-07-20 12:03:24.480 ,4,1,0.,12.0,0.,12.0,0.,12.0,0.,12.0
1979-07-20 12:03:36.470 ,4,0,0.,12.0,0.,12.0,0.,12.0,0.,12.0
1979-07-20 12:03:48.480 ,4,0,0.,12.0,0.,12.0,0.,12.0,0.,12.0
1979-07-20 12:04:00.470 ,5,1,0.,12.0,0.,12.0,0.,12.0,0.,12.0
1979-07-20 12:04:12.470 ,5,1,0.,12.0,0.,12.0,0.,12.0,0.,12.0
1979-07-20 12:04:24.480 ,5,0,0.,12.0,0.,12.0,0.,12.0,0.,12.0
1979-07-20 12:04:36.480 ,5,0,1.,12.0,0.,12.0,0.,12.0,0.,12.0
1979-07-20 12:04:48.480 ,6,1,0.,12.0,0.,12.0,0.,12.0,0.,12.0
1979-07-20 12:05:00.480 ,6,1,0.,12.0,0.,12.0,0.,12.0,0.,12.0
1979-07-20 12:05:12.480 ,6,0,0.,12.0,0.,12.0,0.,12.0,0.,12.0
1979-07-20 12:05:24.480 ,6,0,0.,12.0,0.,12.0,0.,12.0,0.,12.0
1979-07-20 12:05:36.480 ,7,1,0.,12.0,0.,12.0,0.,12.0,0.,12.0
1979-07-20 12:05:48.480 ,7,1,0.,12.0,0.,12.0,0.,12.0,0.,12.0
1979-07-20 12:06:00.480 ,7,0,0.,12.0,0.,12.0,0.,12.0,0.,12.0
1979-07-20 12:06:12.480 ,7,0,0.,12.0,0.,12.0,0.,12.0,0.,12.0
1979-07-20 12:06:24.480 ,7,1,0.,12.0,0.,12.0,0.,12.0,0.,12.0
1979-07-20 12:06:36.480 ,7,1,0.,12.0,0.,12.0,0.,12.0,0.,12.0
1979-07-20 12:06:48.480 ,7,0,0.,12.0,0.,12.0,0.,12.0,0.,12.0
1979-07-20 12:07:00.480 ,7,0,0.,12.0,0.,12.0,0.,12.0,0.,12.0
1979-07-20 12:07:12.480 ,6,1,0.,12.0,0.,12.0,0.,12.0,0.,12.0
1979-07-20 12:07:24.480 ,6,1,0.,12.0,0.,12.0,0.,12.0,0.,12.0
1979-07-20 12:07:36.480 ,6,0,0.,12.0,0.,12.0,0.,12.0,0.,12.0
1979-07-20 12:07:48.480 ,6,0,0.,12.0,0.,12.0,0.,12.0,0.,12.0
1979-07-20 12:07:36.480 ,6,0,0.,12.0,0.,12.0,0.,12.0,0.,12.0
1979-07-20 12:07:48.480 ,6,0,0.,12.0,0.,12.0,0.,12.0,0.,12.0
1979-07-20 12:08:00.480 ,5,1,0.,12.0,0.,12.0,0.,12.0,0.,12.0
1979-07-20 12:08:12.480 ,5,1,0.,12.0,0.,12.0,0.,12.0,0.,12.0
1979-07-20 12:08:24.480 ,5,0,0.,12.0,0.,12.0,0.,12.0,0.,12.0
1979-07-20 12:08:36.470 ,5,0,0.,12.0,0.,12.0,0.,12.0,0.,12.0
1979-07-20 12:08:48.480 ,4,1,0.,12.0,0.,12.0,0.,12.0,0.,12.0
1979-07-20 12:09:00.480 ,4,1,0.,12.0,0.,12.0,0.,12.0,0.,12.0
1979-07-20 12:09:12.480 ,4,0,0.,12.0,0.,12.0,0.,12.0,0.,12.0
1979-07-20 12:09:24.480 ,4,0,0.,12.0,0.,12.0,0.,12.0,0.,12.0
1979-07-20 12:09:36.480 ,3,1,0.,12.0,0.,12.0,0.,12.0,0.,12.0
1979-07-20 12:09:48.480 ,3,1,0.,12.0,0.,12.0,0.,12.0,0.,12.0
1979-07-20 12:10:00.480 ,3,0,0.,12.0,0.,12.0,0.,12.0,0.,12.0
1979-07-20 12:10:12.480 ,3,0,0.,12.0,0.,12.0,0.,12.0,0.,12.0
1979-07-20 12:10:24.480 ,2,1,0.,12.0,0.,12.0,0.,12.0,0.,12.0
1979-07-20 12:10:36.480 ,2,1,0.,12.0,0.,12.0,0.,12.0,0.,12.0
1979-07-20 12:10:48.480 ,2,0,0.,12.0,0.,12.0,0.,12.0,0.,12.0
1979-07-20 12:11:00.480 ,2,0,0.,12.0,0.,12.0,0.,12.0,0.,12.0
1979-07-20 12:11:12.480 ,1,1,0.,12.0,0.,12.0,0.,12.0,0.,12.0
1979-07-20 12:11:24.480 ,1,1,0.,12.0,0.,12.0,0.,12.0,0.,12.0
1979-07-20 12:11:36.480 ,1,0,0.,12.0,0.,12.0,0.,12.0,0.,12.0
1979-07-20 12:11:48.480 ,1,0,0.,12.0,0.,12.0,0.,12.0,0.,12.0
1979-07-20 12:12:00.480 ,0,1,0.,12.0,0.,12.0,0.,12.0,0.,12.0
1979-07-20 12:12:12.480 ,0,1,0.,12.0,0.,12.0,0.,12.0,0.,12.0
1979-07-20 12:12:24.480 ,0,0,0.,12.0,0.,12.0,0.,12.0,0.,12.0
1979-07-20 12:12:36.480 ,0,0,0.,12.0,0.,12.0,0.,12.0,0.,12.0
1979-07-20 12:12:48.480 ,0,1,0.,12.0,0.,12.0,0.,12.0,0.,12.0
1979-07-20 12:13:00.480 ,0,1,0.,12.0,0.,12.0,0.,12.0,0.,12.0
1979-07-20 12:13:12.480 ,0,0,0.,12.0,0.,12.0,0.,12.0,0.,12.0
1979-07-20 12:13:24.480 ,0,0,0.,12.0,0.,12.0,0.,12.0,0.,12.0
1979-07-20 12:13:36.480 ,1,1,0.,12.0,0.,12.0,0.,12.0,0.,12.0
1979-07-20 12:13:48.480 ,1,1,0.,12.0,0.,12.0,0.,12.0,0.,12.0
1979-07-20 12:14:00.480 ,1,0,0.,12.0,0.,12.0,0.,12.0,0.,12.0
1979-07-20 12:14:12.480 ,1,0,0.,12.0,0.,12.0,0.,12.0,0.,12.0
1979-07-20 12:14:24.480 ,2,1,0.,12.0,0.,12.0,0.,12.0,0.,12.0
1979-07-20 12:14:36.480 ,2,1,0.,12.0,0.,12.0,0.,12.0,0.,12.0
1979-07-20 12:14:48.480 ,2,0,0.,12.0,0.,12.0,0.,12.0,0.,12.0
1979-07-20 12:15:00.480 ,2,0,0.,12.0,0.,12.0,0.,12.0,0.,12.0
1979-07-20 12:15:12.480 ,3,1,0.,12.0,0.,12.0,0.,12.0,0.,12.0
1979-07-20 12:15:24.480 ,3,1,0.,12.0,0.,12.0,0.,12.0,0.,12.0
1979-07-20 12:15:36.480 ,3,0,0.,12.0,0.,12.0,0.,12.0,0.,12.0
1979-07-20 12:15:48.480 ,3,0,0.,12.0,0.,12.0,0.,12.0,0.,12.0
1979-07-20 12:16:00.480 ,4,1,0.,12.0,0.,12.0,0.,12.0,0.,12.0
1979-07-20 12:16:12.480 ,4,1,0.,12.0,0.,12.0,0.,12.0,0.,12.0
1979-07-20 12:16:24.480 ,4,0,0.,12.0,0.,12.0,0.,12.0,0.,12.0
1979-07-20 12:16:36.480 ,4,0,0.,12.0,0.,12.0,0.,12.0,0.,12.0
1979-07-20 12:16:48.480 ,5,1,0.,12.0,0.,12.0,0.,12.0,0.,12.0
1979-07-20 12:17:00.480 ,5,1,0.,12.0,0.,12.0,0.,12.0,0.,12.0
1979-07-20 12:17:12.470 ,5,0,0.,12.0,0.,12.0,0.,12.0,0.,12.0
1979-07-20 12:17:24.470 ,5,0,0.,12.0,0.,12.0,0.,12.0,0.,12.0
1979-07-20 12:17:36.470 ,6,1,0.,12.0,0.,12.0,0.,12.0,0.,12.0
1979-07-20 12:17:48.470 ,6,1,0.,12.0,0.,12.0,0.,12.0,0.,12.0
1979-07-20 12:18:00.470 ,6,0,0.,12.0,0.,12.0,0.,12.0,0.,12.0
1979-07-20 12:18:12.470 ,6,0,0.,12.0,0.,12.0,0.,12.0,0.,12.0
1979-07-20 12:18:24.470 ,7,0,0.,12.0,0.,12.0,0.,12.0,0.,12.0
1979-07-20 12:18:36.470 ,7,0,0.,12.0,0.,12.0,0.,12.0,0.,12.0
1979-07-20 12:18:48.470 ,7,0,0.,12.0,0.,12.0,0.,12.0,0.,12.0
1979-07-20 12:19:00.470 ,7,0,0.,12.0,0.,12.0,0.,12.0,0.,12.0
1979-07-20 12:19:12.470 ,4,1,0.,12.0,0.,12.0,0.,12.0,0.,12.0
1979-07-20 12:19:24.470 ,4,1,0.,12.0,0.,12.0,0.,12.0,0.,12.0
1979-07-20 12:19:36.470 ,0,1,0.,12.0,0.,12.0,0.,12.0,0.,12.0
1979-07-20 12:19:48.470 ,0,1,0.,12.0,0.,12.0,0.,12.0,0.,12.0
1979-07-20 12:20:00.470 ,3,1,0.,12.0,0.,12.0,0.,12.0,0.,12.0
1979-07-20 12:20:12.470 ,3,1,0.,12.0,0.,12.0,0.,12.0,0.,12.0
1979-07-20 12:20:24.470 ,7,1,0.,12.0,0.,12.0,0.,12.0,0.,12.0
1979-07-20 12:20:36.470 ,7,1,0.,12.0,0.,12.0,0.,12.0,0.,12.0
1979-07-20 12:20:48.470 ,4,1,0.,12.0,0.,12.0,0.,12.0,0.,12.0
1979-07-20 12:21:00.470 ,4,1,0.,12.0,0.,12.0,0.,12.0,0.,12.0
1979-07-20 12:21:12.470 ,0,1,0.,12.0,0.,12.0,0.,12.0,0.,12.0
1979-07-20 12:21:24.470 ,0,1,0.,12.0,0.,12.0,0.,12.0,0.,12.0
1979-07-20 12:21:36.470 ,3,1,0.,12.0,0.,12.0,0.,12.0,0.,12.0
1979-07-20 12:21:48.470 ,3,1,0.,12.0,0.,12.0,0.,12.0,0.,12.0
1979-07-20 12:22:00.470 ,7,1,0.,12.0,0.,12.0,0.,12.0,0.,12.0
1979-07-20 12:22:12.470 ,7,1,0.,12.0,0.,12.0,0.,12.0,0.,12.0
1979-07-20 12:22:24.470 ,4,1,0.,12.0,0.,12.0,0.,12.0,0.,12.0
1979-07-20 12:22:36.470 ,4,1,0.,12.0,0.,12.0,0.,12.0,0.,12.0
1979-07-20 12:22:48.470 ,0,1,0.,12.0,0.,12.0,0.,12.0,0.,12.0
1979-07-20 12:23:00.470 ,0,1,0.,12.0,0.,12.0,0.,12.0,0.,12.0
1979-07-20 12:23:12.470 ,3,1,0.,12.0,0.,12.0,0.,12.0,0.,12.0
1979-07-20 12:23:24.470 ,3,1,0.,12.0,0.,12.0,0.,12.0,0.,12.0
1979-07-20 12:23:36.470 ,7,1,0.,12.0,0.,12.0,0.,12.0,0.,12.0
1979-07-20 12:23:48.470 ,7,1,0.,12.0,0.,12.0,0.,12.0,0.,12.0
1979-07-20 12:24:00.470 ,4,1,0.,12.0,0.,12.0,0.,12.0,0.,12.0
1979-07-20 12:24:12.470 ,4,1,0.,12.0,0.,12.0,0.,12.0,0.,12.0
1979-07-20 12:24:24.470 ,0,1,0.,12.0,0.,12.0,0.,12.0,0.,12.0
1979-07-20 12:24:36.470 ,0,1,0.,12.0,0.,12.0,0.,12.0,0.,12.0
1979-07-20 12:24:48.470 ,3,1,0.,12.0,0.,12.0,0.,12.0,0.,12.0
1979-07-20 12:25:00.470 ,3,1,0.,12.0,0.,12.0,0.,12.0,0.,12.0
1979-07-20 12:25:12.470 ,7,1,0.,12.0,0.,12.0,0.,12.0,0.,12.0
1979-07-20 12:25:24.470 ,7,1,0.,12.0,0.,12.0,0.,12.0,0.,12.0
1979-07-20 12:25:36.470 ,4,1,0.,12.0,0.,12.0,0.,12.0,0.,12.0
1979-07-20 12:25:48.470 ,4,1,0.,12.0,0.,12.0,0.,12.0,0.,12.0
1979-07-20 12:26:00.470 ,0,1,0.,12.0,0.,12.0,0.,12.0,0.,12.0
1979-07-20 12:26:12.470 ,0,1,0.,12.0,0.,12.0,0.,12.0,0.,12.0
1979-07-20 12:26:24.470 ,3,1,0.,12.0,0.,12.0,0.,12.0,0.,12.0
1979-07-20 12:26:36.470 ,3,1,0.,12.0,0.,12.0,0.,12.0,0.,12.0
1979-07-20 12:26:48.470 ,7,1,0.,12.0,0.,12.0,0.,12.0,0.,12.0
1979-07-20 12:27:00.470 ,7,1,0.,12.0,0.,12.0,0.,12.0,0.,12.0
1979-07-20 12:27:12.470 ,4,1,0.,12.0,0.,12.0,0.,12.0,0.,12.0
1979-07-20 12:27:24.470 ,4,1,0.,12.0,0.,12.0,0.,12.0,0.,12.0
1979-07-20 12:27:36.470 ,0,1,0.,12.0,0.,12.0,0.,12.0,0.,12.0
1979-07-20 12:27:48.470 ,0,1,0.,12.0,0.,12.0,0.,12.0,0.,12.0
1979-07-20 12:28:00.470 ,3,1,0.,12.0,0.,12.0,0.,12.0,0.,12.0
1979-07-20 12:28:12.470 ,3,1,0.,12.0,0.,12.0,0.,12.0,0.,12.0
1979-07-20 12:28:24.470 ,7,1,0.,12.0,0.,12.0,0.,12.0,0.,12.0
1979-07-20 12:28:36.470 ,7,1,0.,12.0,0.,12.0,0.,12.0,0.,12.0
1979-07-20 12:28:48.470 ,4,1,0.,12.0,0.,12.0,0.,12.0,0.,12.0
1979-07-20 12:29:00.470 ,4,1,0.,12.0,0.,12.0,0.,12.0,0.,12.0
1979-07-20 12:29:12.470 ,0,1,0.,12.0,0.,12.0,0.,12.0,0.,12.0
1979-07-20 12:29:24.470 ,0,1,0.,12.0,0.,12.0,0.,12.0,0.,12.0
1979-07-20 12:29:36.470 ,0,0,0.,12.0,0.,12.0,0.,12.0,0.,12.0
1979-07-20 12:29:48.470 ,0,0,0.,12.0,0.,12.0,0.,12.0,0.,12.0
1979-07-20 12:30:00.470 ,0,0,0.,12.0,0.,12.0,0.,12.0,0.,12.0
1979-07-20 12:30:12.470 ,0,0,0.,12.0,0.,12.0,0.,12.0,0.,12.0
1979-07-20 12:30:24.470 ,5,1,0.,12.0,0.,12.0,0.,12.0,0.,12.0
1979-07-20 12:30:36.470 ,5,1,0.,12.0,0.,12.0,0.,12.0,0.,12.0
1979-07-20 12:30:48.470 ,5,0,0.,12.0,0.,12.0,0.,12.0,0.,12.0
1979-07-20 12:31:00.470 ,5,0,0.,12.0,0.,12.0,0.,12.0,0.,12.0
1979-07-20 12:31:12.470 ,4,1,0.,12.0,0.,12.0,0.,12.0,0.,12.0
1979-07-20 12:31:24.470 ,4,1,0.,12.0,0.,12.0,0.,12.0,0.,12.0
1979-07-20 12:31:36.470 ,4,0,0.,12.0,0.,12.0,0.,12.0,0.,12.0
1979-07-20 12:31:48.470 ,4,0,0.,12.0,0.,12.0,0.,12.0,0.,12.0
1979-07-20 12:32:00.470 ,3,1,0.,12.0,0.,12.0,0.,12.0,0.,12.0
1979-07-20 12:32:12.470 ,3,1,0.,12.0,0.,12.0,0.,12.0,0.,12.0
1979-07-20 12:32:24.470 ,3,0,0.,12.0,0.,12.0,0.,12.0,0.,12.0
1979-07-20 12:32:36.470 ,3,0,0.,12.0,0.,12.0,0.,12.0,0.,12.0
1979-07-20 12:32:48.470 ,2,1,0.,12.0,0.,12.0,0.,12.0,0.,12.0
1979-07-20 12:33:00.470 ,2,1,0.,12.0,0.,12.0,0.,12.0,0.,12.0
1979-07-20 12:33:12.470 ,2,0,0.,12.0,0.,12.0,0.,12.0,0.,12.0
1979-07-20 12:33:24.470 ,2,0,0.,12.0,0.,12.0,0.,12.0,0.,12.0
1979-07-20 12:33:36.470 ,1,1,0.,12.0,0.,12.0,0.,12.0,0.,12.0
1979-07-20 12:33:48.470 ,1,1,0.,12.0,0.,12.0,0.,12.0,0.,12.0
1979-07-20 12:34:00.470 ,1,0,0.,12.0,0.,12.0,0.,12.0,0.,12.0
1979-07-20 12:34:12.470 ,1,0,0.,12.0,0.,12.0,0.,12.0,0.,12.0
1979-07-20 12:34:24.470 ,0,1,0.,12.0,0.,12.0,0.,12.0,0.,12.0
1979-07-20 12:34:36.470 ,0,1,0.,12.0,0.,12.0,0.,12.0,0.,12.0
1979-07-20 12:34:48.470 ,0,0,0.,12.0,0.,12.0,0.,12.0,0.,12.0
1979-07-20 12:35:00.470 ,0,0,0.,12.0,0.,12.0,0.,12.0,0.,12.0
1979-07-20 12:35:12.470 ,0,1,0.,12.0,0.,12.0,0.,12.0,0.,12.0
1979-07-20 12:35:24.470 ,0,1,0.,12.0,0.,12.0,0.,12.0,0.,12.0
1979-07-20 12:35:36.470 ,0,0,0.,12.0,0.,12.0,0.,12.0,0.,12.0
1979-07-20 12:35:48.470 ,0,0,0.,12.0,0.,12.0,0.,12.0,0.,12.0
1979-07-20 12:36:00.470 ,1,1,0.,12.0,0.,12.0,0.,12.0,0.,12.0
1979-07-20 12:36:12.470 ,1,1,0.,12.0,0.,12.0,0.,12.0,0.,12.0
1979-07-20 12:36:24.470 ,1,0,0.,12.0,0.,12.0,0.,12.0,0.,12.0
1979-07-20 12:36:36.470 ,1,0,0.,12.0,0.,12.0,0.,12.0,0.,12.0
1979-07-20 12:36:48.470 ,2,1,0.,12.0,0.,12.0,0.,12.0,0.,12.0
1979-07-20 12:37:00.470 ,2,1,0.,12.0,0.,12.0,0.,12.0,0.,12.0
1979-07-20 12:37:12.470 ,2,0,0.,12.0,0.,12.0,0.,12.0,0.,12.0
1979-07-20 12:37:24.470 ,2,0,0.,12.0,0.,12.0,0.,12.0,0.,12.0
1979-07-20 12:37:36.470 ,3,1,0.,12.0,0.,12.0,0.,12.0,0.,12.0
1979-07-20 12:37:48.470 ,3,1,0.,12.0,0.,12.0,0.,12.0,0.,12.0
1979-07-20 12:38:00.470 ,3,0,0.,12.0,0.,12.0,0.,12.0,0.,12.0
1979-07-20 12:38:12.470 ,3,0,0.,12.0,0.,12.0,0.,12.0,0.,12.0
1979-07-20 12:38:24.470 ,4,1,0.,12.0,0.,12.0,0.,12.0,0.,12.0
1979-07-20 12:38:36.470 ,4,1,0.,12.0,0.,12.0,0.,12.0,0.,12.0
1979-07-20 12:38:48.470 ,4,0,0.,12.0,0.,12.0,0.,12.0,0.,12.0
1979-07-20 12:39:00.470 ,4,0,0.,12.0,0.,12.0,0.,12.0,0.,12.0
1979-07-20 12:39:12.470 ,5,1,0.,12.0,0.,12.0,0.,12.0,0.,12.0
1979-07-20 12:39:24.470 ,5,1,0.,12.0,0.,12.0,0.,12.0,0.,12.0
1979-07-20 12:39:36.470 ,5,0,0.,12.0,0.,12.0,0.,12.0,0.,12.0
1979-07-20 12:39:48.470 ,5,0,0.,12.0,0.,12.0,0.,12.0,0.,12.0
1979-07-20 12:40:00.470 ,6,1,0.,12.0,0.,12.0,0.,12.0,0.,12.0
1979-07-20 12:40:12.470 ,6,1,0.,12.0,0.,12.0,0.,12.0,0.,12.0
1979-07-20 12:40:24.470 ,6,0,0.,12.0,0.,12.0,0.,12.0,0.,12.0
1979-07-20 12:40:36.470 ,6,0,0.,12.0,0.,12.0,0.,12.0,0.,12.0
1979-07-20 12:40:48.470 ,7,1,0.,12.0,0.,12.0,0.,12.0,0.,12.0
1979-07-20 12:41:00.470 ,7,1,0.,12.0,0.,12.0,0.,12.0,0.,12.0
1979-07-20 12:41:12.470 ,7,0,0.,12.0,0.,12.0,0.,12.0,0.,12.0
1979-07-20 12:41:24.470 ,7,0,0.,12.0,0.,12.0,0.,12.0,0.,12.0
1979-07-20 12:41:36.470 ,7,1,0.,12.0,0.,12.0,0.,12.0,0.,12.0
1979-07-20 12:41:48.470 ,7,1,0.,12.0,0.,12.0,0.,12.0,0.,12.0
1979-07-20 12:42:00.470 ,7,0,0.,12.0,0.,12.0,0.,12.0,0.,12.0
1979-07-20 12:42:12.470 ,7,0,0.,12.0,0.,12.0,0.,12.0,0.,12.0
1979-07-20 12:42:24.470 ,6,1,0.,12.0,0.,12.0,0.,12.0,0.,12.0
1979-07-20 12:42:36.470 ,6,1,0.,12.0,0.,12.0,0.,12.0,0.,12.0
1979-07-20 12:42:48.470 ,6,0,0.,12.0,0.,12.0,0.,12.0,0.,12.0
1979-07-20 12:43:00.470 ,6,0,0.,12.0,0.,12.0,0.,12.0,0.,12.0
1979-07-20 12:43:12.470 ,5,1,0.,12.0,0.,12.0,0.,12.0,0.,12.0
1979-07-20 12:43:24.470 ,5,1,0.,12.0,0.,12.0,0.,12.0,0.,12.0
1979-07-20 12:43:36.470 ,5,0,0.,12.0,0.,12.0,0.,12.0,0.,12.0
1979-07-20 12:43:48.470 ,5,0,0.,12.0,0.,12.0,0.,12.0,0.,12.0
1979-07-20 12:44:00.470 ,4,1,0.,12.0,0.,12.0,0.,12.0,0.,12.0
1979-07-20 12:44:12.470 ,4,1,0.,12.0,0.,12.0,0.,12.0,0.,12.0
1979-07-20 12:44:24.470 ,4,0,0.,12.0,0.,12.0,0.,12.0,0.,12.0
1979-07-20 12:44:36.470 ,4,0,0.,12.0,0.,12.0,0.,12.0,0.,12.0
1979-07-20 12:44:48.470 ,3,1,0.,12.0,0.,12.0,0.,12.0,0.,12.0
1979-07-20 12:45:00.470 ,3,1,0.,12.0,0.,12.0,0.,12.0,0.,12.0
1979-07-20 12:45:12.470 ,3,0,0.,12.0,0.,12.0,0.,12.0,0.,12.0
1979-07-20 12:45:24.470 ,3,0,0.,12.0,0.,12.0,0.,12.0,0.,12.0
1979-07-20 12:45:36.470 ,2,1,0.,12.0,0.,12.0,0.,12.0,0.,12.0
1979-07-20 12:45:48.470 ,2,1,0.,12.0,0.,12.0,0.,12.0,0.,12.0
1979-07-20 12:46:00.470 ,2,0,0.,12.0,0.,12.0,0.,12.0,0.,12.0
1979-07-20 12:46:12.470 ,2,0,0.,12.0,0.,12.0,0.,12.0,0.,12.0
1979-07-20 12:46:24.470 ,1,1,0.,12.0,0.,12.0,0.,12.0,0.,12.0
1979-07-20 12:46:36.470 ,1,1,0.,12.0,0.,12.0,0.,12.0,0.,12.0
1979-07-20 12:46:48.470 ,1,0,0.,12.0,0.,12.0,0.,12.0,0.,12.0
1979-07-20 12:47:00.470 ,1,0,0.,12.0,0.,12.0,0.,12.0,0.,12.0
1979-07-20 12:47:12.470 ,0,1,0.,12.0,0.,12.0,0.,12.0,0.,12.0
1979-07-20 12:47:24.470 ,0,1,0.,12.0,0.,12.0,0.,12.0,0.,12.0
1979-07-20 12:47:36.470 ,0,0,0.,12.0,0.,12.0,0.,12.0,0.,12.0
1979-07-20 12:47:48.470 ,0,0,0.,12.0,0.,12.0,0.,12.0,0.,12.0
1979-07-20 12:48:00.470 ,0,1,0.,12.0,0.,12.0,0.,12.0,0.,12.0
1979-07-20 12:48:12.470 ,0,1,0.,12.0,0.,12.0,0.,12.0,0.,12.0
1979-07-20 12:48:24.470 ,0,0,0.,12.0,0.,12.0,0.,12.0,0.,12.0
1979-07-20 12:48:36.470 ,0,0,0.,12.0,0.,12.0,0.,12.0,0.,12.0
1979-07-20 12:48:48.470 ,1,1,0.,12.0,0.,12.0,0.,12.0,0.,12.0
1979-07-20 12:49:00.470 ,1,1,0.,12.0,0.,12.0,0.,12.0,0.,12.0
1979-07-20 12:49:12.470 ,1,0,0.,12.0,0.,12.0,0.,12.0,0.,12.0
1979-07-20 12:49:24.470 ,1,0,0.,12.0,0.,12.0,0.,12.0,0.,12.0
1979-07-20 12:49:36.470 ,2,1,0.,12.0,0.,12.0,0.,12.0,0.,12.0
1979-07-20 12:49:48.470 ,2,1,0.,12.0,0.,12.0,0.,12.0,0.,12.0
1979-07-20 12:50:00.470 ,2,0,0.,12.0,0.,12.0,0.,12.0,0.,12.0
1979-07-20 12:50:12.470 ,2,0,0.,12.0,0.,12.0,0.,12.0,0.,12.0
1979-07-20 12:50:24.470 ,3,1,0.,12.0,0.,12.0,0.,12.0,0.,12.0
1979-07-20 12:50:36.470 ,3,1,0.,12.0,0.,12.0,0.,12.0,0.,12.0
1979-07-20 12:50:48.470 ,3,0,0.,12.0,0.,12.0,0.,12.0,0.,12.0
1979-07-20 12:51:00.470 ,3,0,0.,12.0,0.,12.0,0.,12.0,0.,12.0
1979-07-20 12:51:12.470 ,4,1,0.,12.0,0.,12.0,0.,12.0,0.,12.0
1979-07-20 12:51:24.470 ,4,1,0.,12.0,0.,12.0,0.,12.0,0.,12.0
1979-07-20 12:51:36.470 ,4,0,0.,12.0,0.,12.0,0.,12.0,0.,12.0
1979-07-20 12:51:48.470 ,4,0,0.,12.0,0.,12.0,0.,12.0,0.,12.0
1979-07-20 12:52:00.470 ,5,1,0.,12.0,0.,12.0,0.,12.0,0.,12.0
1979-07-20 12:52:12.470 ,5,1,0.,12.0,0.,12.0,0.,12.0,0.,12.0
1979-07-20 12:52:24.470 ,5,0,0.,12.0,0.,12.0,0.,12.0,0.,12.0
1979-07-20 12:52:36.470 ,5,0,0.,12.0,0.,12.0,0.,12.0,0.,12.0
1979-07-20 12:52:48.470 ,6,1,0.,12.0,0.,12.0,0.,12.0,0.,12.0
1979-07-20 12:53:00.470 ,6,1,0.,12.0,0.,12.0,0.,12.0,0.,12.0
1979-07-20 12:53:12.470 ,6,0,0.,12.0,0.,12.0,0.,12.0,0.,12.0
1979-07-20 12:53:24.470 ,6,0,0.,12.0,0.,12.0,0.,12.0,0.,12.0
1979-07-20 12:53:36.470 ,7,1,0.,12.0,0.,12.0,0.,12.0,0.,12.0
1979-07-20 12:53:48.470 ,7,1,0.,12.0,0.,12.0,0.,12.0,0.,12.0
1979-07-20 12:54:00.470 ,7,0,0.,12.0,0.,12.0,0.,12.0,0.,12.0
1979-07-20 12:54:12.470 ,7,0,0.,12.0,0.,12.0,0.,12.0,0.,12.0
1979-07-20 12:54:24.470 ,7,1,0.,12.0,0.,12.0,0.,12.0,0.,12.0
1979-07-20 12:54:36.470 ,7,1,0.,12.0,0.,12.0,0.,12.0,0.,12.0
1979-07-20 12:54:48.470 ,7,0,0.,12.0,0.,12.0,0.,12.0,0.,12.0
1979-07-20 12:55:00.470 ,7,0,0.,12.0,0.,12.0,0.,12.0,0.,12.0
1979-07-20 12:55:12.470 ,6,1,0.,12.0,0.,12.0,0.,12.0,0.,12.0
1979-07-20 12:55:24.470 ,6,1,0.,12.0,0.,12.0,0.,12.0,0.,12.0
1979-07-20 12:55:36.470 ,6,0,0.,12.0,0.,12.0,0.,12.0,0.,12.0
1979-07-20 12:55:48.470 ,6,0,0.,12.0,0.,12.0,0.,12.0,0.,12.0
1979-07-20 12:56:00.470 ,5,1,0.,12.0,0.,12.0,0.,12.0,0.,12.0
1979-07-20 12:56:12.470 ,5,1,0.,12.0,0.,12.0,0.,12.0,0.,12.0
1979-07-20 12:56:24.470 ,5,0,0.,12.0,0.,12.0,0.,12.0,0.,12.0
1979-07-20 12:56:36.470 ,5,0,0.,12.0,0.,12.0,0.,12.0,0.,12.0
1979-07-20 12:56:48.470 ,4,1,0.,12.0,0.,12.0,0.,12.0,0.,12.0
1979-07-20 12:57:00.470 ,4,1,0.,12.0,0.,12.0,0.,12.0,0.,12.0
1979-07-20 12:57:12.470 ,4,0,0.,12.0,0.,12.0,0.,12.0,0.,12.0
1979-07-20 12:57:24.470 ,4,0,0.,12.0,0.,12.0,0.,12.0,0.,12.0
1979-07-20 12:57:36.470 ,3,1,0.,12.0,0.,12.0,0.,12.0,0.,12.0
1979-07-20 12:57:48.470 ,3,1,0.,12.0,0.,12.0,0.,12.0,0.,12.0
1979-07-20 12:58:00.470 ,3,0,0.,12.0,0.,12.0,0.,12.0,0.,12.0
1979-07-20 12:58:12.470 ,3,0,0.,12.0,0.,12.0,0.,12.0,0.,12.0
1979-07-20 12:58:24.470 ,2,1,0.,12.0,0.,12.0,0.,12.0,0.,12.0
1979-07-20 12:58:36.470 ,2,1,0.,12.0,0.,12.0,0.,12.0,0.,12.0
1979-07-20 12:58:48.470 ,2,0,0.,12.0,0.,12.0,0.,12.0,0.,12.0
1979-07-20 12:59:00.470 ,2,0,0.,12.0,0.,12.0,0.,12.0,0.,12.0
1979-07-20 12:59:12.470 ,1,1,0.,12.0,0.,12.0,0.,12.0,0.,12.0
1979-07-20 12:59:24.470 ,1,1,0.,12.0,0.,12.0,0.,12.0,0.,12.0
1979-07-20 12:59:36.470 ,1,0,0.,12.0,0.,12.0,0.,12.0,0.,12.0
1979-07-20 12:59:48.470 ,1,0,0.,12.0,0.,12.0,0.,12.0,0.,12.0
1979-07-20 13:00:00.470 ,0,1,0.,12.0,0.,12.0,0.,12.0,0.,12.0
1979-07-20 13:00:12.470 ,0,1,0.,12.0,0.,12.0,0.,12.0,0.,12.0
1979-07-20 13:00:24.470 ,0,0,0.,12.0,0.,12.0,0.,12.0,0.,12.0
1979-07-20 13:00:36.470 ,0,0,0.,12.0,0.,12.0,0.,12.0,0.,12.0
1979-07-20 13:00:48.470 ,0,1,0.,12.0,0.,12.0,0.,12.0,0.,12.0
1979-07-20 13:01:00.470 ,0,1,0.,12.0,0.,12.0,0.,12.0,0.,12.0
1979-07-20 13:01:12.470 ,0,0,0.,12.0,0.,12.0,0.,12.0,0.,12.0
1979-07-20 13:01:24.470 ,0,0,0.,12.0,0.,12.0,0.,12.0,0.,12.0
1979-07-20 13:01:36.470 ,1,1,0.,12.0,0.,12.0,0.,12.0,0.,12.0
1979-07-20 13:01:48.470 ,1,1,0.,12.0,0.,12.0,0.,12.0,0.,12.0
1979-07-20 13:02:00.470 ,1,0,0.,12.0,0.,12.0,0.,12.0,0.,12.0
1979-07-20 13:02:12.470 ,1,0,0.,12.0,0.,12.0,0.,12.0,0.,12.0
1979-07-20 13:02:24.470 ,2,1,0.,12.0,0.,12.0,0.,12.0,0.,12.0
1979-07-20 13:02:36.470 ,2,1,0.,12.0,0.,12.0,0.,12.0,0.,12.0
1979-07-20 13:02:48.470 ,2,0,0.,12.0,0.,12.0,0.,12.0,0.,12.0
1979-07-20 13:03:00.470 ,2,0,0.,12.0,0.,12.0,0.,12.0,0.,12.0
1979-07-20 13:03:12.470 ,3,1,0.,12.0,0.,12.0,0.,12.0,0.,12.0
1979-07-20 13:03:24.470 ,3,1,0.,12.0,0.,12.0,0.,12.0,0.,12.0
1979-07-20 13:03:36.470 ,3,0,0.,12.0,0.,12.0,0.,12.0,0.,12.0
1979-07-20 13:03:48.470 ,3,0,0.,12.0,0.,12.0,0.,12.0,0.,12.0
1979-07-20 13:04:00.470 ,4,1,0.,12.0,0.,12.0,0.,12.0,0.,12.0
1979-07-20 13:04:12.470 ,4,1,0.,12.0,0.,12.0,0.,12.0,0.,12.0
1979-07-20 13:04:24.470 ,4,0,0.,12.0,0.,12.0,0.,12.0,0.,12.0
1979-07-20 13:04:36.470 ,4,0,0.,12.0,0.,12.0,0.,12.0,0.,12.0
1979-07-20 13:04:48.470 ,5,1,0.,12.0,0.,12.0,0.,12.0,0.,12.0
1979-07-20 13:05:00.470 ,5,1,0.,12.0,0.,12.0,0.,12.0,0.,12.0
1979-07-20 13:05:12.470 ,5,0,0.,12.0,0.,12.0,0.,12.0,0.,12.0
1979-07-20 13:05:24.470 ,5,0,0.,12.0,0.,12.0,0.,12.0,0.,12.0
1979-07-20 13:05:36.470 ,6,1,0.,12.0,0.,12.0,0.,12.0,0.,12.0
1979-07-20 13:05:48.470 ,6,1,0.,12.0,0.,12.0,0.,12.0,0.,12.0
1979-07-20 13:06:00.470 ,6,0,0.,12.0,0.,12.0,0.,12.0,0.,12.0
1979-07-20 13:06:12.470 ,6,0,0.,12.0,0.,12.0,0.,12.0,0.,12.0
1979-07-20 13:06:24.470 ,7,0,0.,12.0,0.,12.0,0.,12.0,0.,12.0
1979-07-20 13:06:36.470 ,7,0,0.,12.0,0.,12.0,0.,12.0,0.,12.0
1979-07-20 13:06:48.470 ,7,0,0.,12.0,0.,12.0,0.,12.0,0.,12.0
1979-07-20 13:07:00.470 ,7,0,0.,12.0,0.,12.0,0.,12.0,0.,12.0
1979-07-20 13:07:12.470 ,4,1,0.,12.0,0.,12.0,0.,12.0,0.,12.0
1979-07-20 13:07:24.470 ,4,1,0.,12.0,0.,12.0,0.,12.0,0.,12.0
1979-07-20 13:07:36.470 ,0,1,0.,12.0,0.,12.0,0.,12.0,0.,12.0
1979-07-20 13:07:48.470 ,0,1,0.,12.0,0.,12.0,0.,12.0,0.,12.0
1979-07-20 13:08:00.470 ,3,1,0.,12.0,0.,12.0,0.,12.0,0.,12.0
1979-07-20 13:08:12.470 ,3,1,0.,12.0,0.,12.0,0.,12.0,0.,12.0
1979-07-20 13:08:24.470 ,7,1,0.,12.0,0.,12.0,0.,12.0,0.,12.0
1979-07-20 13:08:36.470 ,7,1,0.,12.0,0.,12.0,0.,12.0,0.,12.0
1979-07-20 13:08:48.470 ,4,1,0.,12.0,0.,12.0,0.,12.0,0.,12.0
1979-07-20 13:09:00.470 ,4,1,0.,12.0,0.,12.0,0.,12.0,0.,12.0
1979-07-20 13:09:12.470 ,0,1,0.,12.0,0.,12.0,0.,12.0,0.,12.0
1979-07-20 13:09:24.470 ,0,1,0.,12.0,0.,12.0,0.,12.0,0.,12.0
1979-07-20 13:09:36.470 ,3,1,0.,12.0,0.,12.0,0.,12.0,0.,12.0
1979-07-20 13:09:48.470 ,3,1,0.,12.0,0.,12.0,0.,12.0,0.,12.0
1979-07-20 13:10:00.470 ,7,1,0.,12.0,0.,12.0,0.,12.0,0.,12.0
1979-07-20 13:10:12.470 ,7,1,0.,12.0,0.,12.0,0.,12.0,0.,12.0
1979-07-20 13:10:24.470 ,4,1,0.,12.0,0.,12.0,0.,12.0,0.,12.0
1979-07-20 13:10:36.470 ,4,1,0.,12.0,0.,12.0,0.,12.0,0.,12.0
1979-07-20 13:10:48.470 ,0,1,0.,12.0,0.,12.0,0.,12.0,0.,12.0
1979-07-20 13:11:00.470 ,0,1,0.,12.0,0.,12.0,0.,12.0,0.,12.0
1979-07-20 13:11:12.470 ,3,1,0.,12.0,0.,12.0,0.,12.0,0.,12.0
1979-07-20 13:11:24.470 ,3,1,0.,12.0,0.,12.0,0.,12.0,0.,12.0
1979-07-20 13:11:36.470 ,7,1,0.,12.0,0.,12.0,0.,12.0,0.,12.0
1979-07-20 13:11:48.470 ,7,1,0.,12.0,0.,12.0,0.,12.0,0.,12.0
1979-07-20 13:12:00.470 ,4,1,0.,12.0,0.,12.0,0.,12.0,0.,12.0
1979-07-20 13:12:12.470 ,4,1,0.,12.0,0.,12.0,0.,12.0,0.,12.0
1979-07-20 13:12:24.470 ,0,1,0.,12.0,0.,12.0,0.,12.0,0.,12.0
1979-07-20 13:12:36.470 ,0,1,0.,12.0,0.,12.0,0.,12.0,0.,12.0
1979-07-20 13:12:48.470 ,3,1,0.,12.0,0.,12.0,0.,12.0,0.,12.0
1979-07-20 13:13:00.470 ,3,1,0.,12.0,0.,12.0,0.,12.0,0.,12.0
1979-07-20 13:13:12.470 ,7,1,0.,12.0,0.,12.0,0.,12.0,0.,12.0
1979-07-20 13:13:24.470 ,7,1,0.,12.0,0.,12.0,0.,12.0,0.,12.0
1979-07-20 13:13:36.470 ,4,1,0.,12.0,0.,12.0,0.,12.0,0.,12.0
1979-07-20 13:13:48.470 ,4,1,0.,12.0,0.,12.0,0.,12.0,0.,12.0
1979-07-20 13:14:00.470 ,0,1,0.,12.0,0.,12.0,0.,12.0,0.,12.0
1979-07-20 13:14:12.470 ,0,1,0.,12.0,0.,12.0,0.,12.0,0.,12.0
1979-07-20 13:14:24.470 ,3,1,0.,12.0,0.,12.0,0.,12.0,0.,12.0
1979-07-20 13:14:36.470 ,3,1,0.,12.0,0.,12.0,0.,12.0,0.,12.0
1979-07-20 13:14:48.470 ,7,1,0.,12.0,0.,12.0,0.,12.0,0.,12.0
1979-07-20 13:15:00.470 ,7,1,0.,12.0,0.,12.0,0.,12.0,0.,12.0
1979-07-20 13:15:12.470 ,4,1,1.,12.0,0.,12.0,0.,12.0,0.,12.0
1979-07-20 13:15:24.470 ,4,1,0.,12.0,0.,12.0,0.,12.0,0.,12.0
1979-07-20 13:15:36.470 ,0,1,0.,12.0,0.,12.0,0.,12.0,0.,12.0
1979-07-20 13:15:48.470 ,0,1,0.,12.0,0.,12.0,0.,12.0,0.,12.0
1979-07-20 13:16:00.470 ,3,1,0.,12.0,0.,12.0,0.,12.0,0.,12.0
1979-07-20 13:16:12.470 ,3,1,0.,12.0,0.,12.0,0.,12.0,0.,12.0
1979-07-20 13:16:24.470 ,7,1,0.,12.0,0.,12.0,0.,12.0,0.,12.0
1979-07-20 13:16:36.470 ,7,1,0.,12.0,0.,12.0,0.,12.0,0.,12.0
1979-07-20 13:16:48.470 ,4,1,0.,12.0,0.,12.0,0.,12.0,0.,12.0
1979-07-20 13:17:00.470 ,4,1,0.,12.0,0.,12.0,0.,12.0,0.,12.0